Regional Weather Roundup
Issued by NWS

Home | Current Version | Previous Version | Graphics & Text | Print | Product List | Glossary On
Versions: 1 2 3 4 5 6 7 8 9 10 11 12 13 14 15 16 17 18 19 20 21 22 23 24 25 26 27 28 29 30 31 32 33 34 35 36 37 38 39 40 41 42 43 44 45 46 47 48
000
ASUS45 KCYS 301410
RWRWY

WYOMING REGIONAL WEATHER ROUNDUP
NATIONAL WEATHER SERVICE CHEYENNE WY
800 AM MDT TUE SEP 30 2014

NOTE:  "FAIR" INDICATES FEW OR NO CLOUDS BELOW 12,000 FEET
WITH NO SIGNIFICANT WEATHER AND/OR OBSTRUCTIONS TO VISIBILITY.

WYZ001-301500-
YELLOWSTONE NATIONAL PARK

CITY           SKY/WX    TMP DP  RH WIND       PRES   REMARKS
LK YELLOWSTONE   N/A     38  35  89 W5        29.94S WCI  34
W YELLOWSTONE  NOT AVBL

$$
WYZ002>013-054>058-071-098>099-301500-
NORTHERN WYOMING

CITY           SKY/WX    TMP DP  RH WIND       PRES   REMARKS
JACKSON        CLOUDY    43  43 100 SW9       29.91F
CODY           MOCLDY    54  37  54 W13G21    29.76S
GREYBULL       CLOUDY    44  44 100 CALM      29.73R
WORLAND        MOCLDY    42  41  96 S5        29.74S
SHERIDAN       CLOUDY    50  40  68 W12       29.70R
BUFFALO        CLOUDY    50  37  61 N9        29.72R
GILLETTE       LGT RAIN  51  49  92 W12       29.67S
HULETT         RAIN      50  50 100 N12       29.64
NEWCASTLE      CLOUDY    48  46  93 NW15G22   29.60

$$
WYZ014>020-022>026-101>103-301500-
CENTRAL WYOMING

CITY           SKY/WX    TMP DP  RH WIND       PRES   REMARKS
BIG PINEY      MOCLDY    38  36  92 CALM      29.95S
PINEDALE       PTSUNNY   37  36  93 MISG      29.95S
DUBOIS         CLOUDY    41  32  70 NW12G18   29.88S
LANDER         CLEAR     45  36  70 SW3       29.81R
RIVERTON       CLEAR     47  36  65 W15       29.81R
CASPER         MOCLDY    48  36  63 SW13      29.79R
DOUGLAS        CLOUDY    53  38  56 W23G31    29.73R

$$
WYZ021-027>030-104>119-301500-
SOUTHERN WYOMING

CITY           SKY/WX    TMP DP  RH WIND       PRES   REMARKS
EVANSTON       LGT RAIN  42  40  92 SW17      29.99S FOG
KEMMERER       DRIZZLE   41  39  93 W14G20    29.98R
FORT BRIDGER   CLOUDY    44  42  93 W16G26    30.01R
ROCK SPRINGS   CLOUDY    42  37  82 W14       29.95S
DIXON          CLOUDY    44  39  82 SW8       30.01R
RAWLINS        PTCLDY    42  36  79 W18       29.92R
SARATOGA         N/A     41  36  81 SW13      29.95S
LARAMIE        MOSUNNY   44  31  60 W16G24    29.89R
CHEYENNE       PTSUNNY   51  34  52 W23G31    29.85R
TORRINGTON     CLOUDY    52  45  77 NW8       29.70R
PINE BLUFFS    FAIR      50  41  71 W16       29.82R

$$



USA.gov is the U.S. government's official web portal to all federal, state and local government web resources and services.